This is the latest recevied weather packets stored in our database for station/object N2PUI. If no packets are shown the sender has not sent any weather packets the latest 10 day(s).
| Time | Temp. | Humidity | Pressure | Rain* | Wind** | Luminosity | Snow |
|---|---|---|---|---|---|---|---|
| 1777901239 | 12.22° C | 50% | 1010.7 hPa | 0 mm | - | 488 W/m² | - |
| 1777900936 | 11.67° C | 52% | 1010.7 hPa | 0 mm | - | 465 W/m² | - |
| 1777900634 | 11.11° C | 51% | 1010.5 hPa | 0 mm | - | 277 W/m² | - |
| 1777900331 | 11.11° C | 53% | 1010.8 hPa | 0 mm | - | 274 W/m² | - |
| 1777900028 | 11.11° C | 53% | 1010.7 hPa | 0 mm | - | 159 W/m² | - |
| 1777899724 | 10.56° C | 54% | 1010.8 hPa | 0 mm | - | 123 W/m² | - |
| 1777899421 | 10.56° C | 54% | 1011.1 hPa | 0 mm | - | 143 W/m² | - |
| 1777899119 | 10.56° C | 53% | 1011 hPa | 0 mm | - | 118 W/m² | - |
| 1777898816 | 10.56° C | 53% | 1010.8 hPa | 0 mm | - | 108 W/m² | - |
| 1777898514 | 10.56° C | 54% | 1010.9 hPa | 0 mm | - | 92 W/m² | - |
| 1777898211 | 10.56° C | 53% | 1011.1 hPa | 0 mm | - | 91 W/m² | - |
| 1777897908 | 10° C | 55% | 1011.1 hPa | 0 mm | - | 103 W/m² | - |
| 1777897604 | 10° C | 54% | 1010.9 hPa | 0 mm | - | 111 W/m² | - |
| 1777897299 | 10° C | 55% | 1011.1 hPa | 0 mm | - | 105 W/m² | - |
| 1777896996 | 10° C | 54% | 1011.2 hPa | 0 mm | - | 87 W/m² | - |
| 1777896693 | 10° C | 55% | 1011.3 hPa | 0 mm | - | 82 W/m² | - |
| 1777896390 | 10° C | 55% | 1011.2 hPa | 0 mm | - | 72 W/m² | - |
| 1777896088 | 10° C | 55% | 1011.4 hPa | 0 mm | - | 75 W/m² | - |
| 1777895786 | 10° C | 54% | 1011.1 hPa | 0 mm | - | 63 W/m² | - |
| 1777895483 | 10° C | 55% | 1011.2 hPa | 0 mm | - | 59 W/m² | - |
| 1777895181 | 10° C | 54% | 1010.9 hPa | 0 mm | - | 91 W/m² | - |
| 1777894877 | 10° C | 55% | 1011 hPa | 0 mm | - | 121 W/m² | - |
| 1777894575 | 9.44° C | 54% | 1011 hPa | 0 mm | - | 115 W/m² | - |
| 1777894272 | 9.44° C | 55% | 1010.9 hPa | 0 mm | - | 124 W/m² | - |
| 1777893969 | 9.44° C | 55% | 1011 hPa | 0 mm | - | 101 W/m² | - |
* Rain latest hour (hover to see other rain measurements)
** Current wind speed in m/s (hover to see current wind gust speed)